sat.trackr.live / text

‹ back to catalog

STARLINK-31706

NORAD 59437 · 2024-065S

PAYLOAD ACTIVE UNKNOWN

§ Identity

Operator
Country
US
Launch date
2024-04-07
Launch site
AFWTR
Launch vehicle
Mass (kg)
RCS (m²)

Purposes: comms

External: N2YO · Heavens-Above · Gunter

§ Orbital elements

Epoch: 2026-05-25T02:41:38.824224Z

Period
94.11 min
Inclination
53.1607°
Eccentricity
0.0001077
Mean motion
15.30191446 rev/d
Perigee alt
474.5 km
Apogee alt
476.0 km
Semi-major
6,853.4 km
B*
2.9062e-5
RAAN
288.5807°
Arg perigee
107.2899°
Mean anomaly
252.8220°
Rev number
12,060

§ Raw data

STARLINK-317061 59437U 24065S   26145.11225491  .00000502  00000+0  29062-4 0  99972 59437  53.1607 288.5807 0001077 107.2899 252.8220 15.30191446120605

JSON: /api/v1/satellites/59437 · /tle

For live sub-satellite position, see the globe view (requires WebGL).

§ Visibility from observer

Set your observer location to see the next 7 days of passes ≥ 10°. The values pass through the URL so the page stays shareable.

No JS? Fill the form by hand. The geolocation button needs JavaScript.